Theta_e
341 341 343 345 346 348 349 350 351 350 350 349 349 349 349 349 349 348 349 347 346 346 347 348 348 348 350 348 347 346 345 345 344 346 348 349 348 348 348 347 348 349 349 349 348 347 347 347 348 351 352 351 350 350 350 350 351 351 351 351 349 348 348 346 345 343 341 342 342 340 340 340 342 343 343 342 342 342 341 341 342 342 342 341 342
341 340 341 344 346 347 349 350 350 350 350 350 349 349 349 349 349 348 348 347 346 346 347 347 347 348 347 346 346 345 344 344 344 346 348 349 348 347 347 347 348 350 350 349 349 348 347 347 348 350 351 350 349 350 350 351 352 352 351 351 349 349 349 348 348 345 342 341 340 340 341 341 341 341 342 342 342 342 342 341 342 342 342 342 342
343 341 340 342 344 347 349 349 350 349 350 350 349 349 350 349 349 348 347 347 347 346 347 347 347 347 346 345 345 345 345 344 345 347 349 349 348 346 346 347 348 349 350 350 349 348 347 348 349 350 351 350 350 350 351 353 353 352 352 350 349 350 350 349 349 347 344 341 341 346 346 347 349 344 340 341 341 341 340 341 340 340 341 341 341
344 341 340 341 343 347 348 349 349 349 350 351 350 349 350 349 349 348 346 347 348 347 347 348 348 349 348 347 346 346 345 346 347 348 349 350 349 347 347 347 348 348 349 350 350 349 349 349 350 351 350 350 351 351 352 354 353 353 353 351 349 349 351 350 349 348 346 343 346 349 346 350 358 349 342 342 341 341 341 340 342 341 340 340 340
343 341 340 341 343 346 348 348 349 349 350 351 350 349 349 349 349 347 346 347 348 348 348 349 350 350 350 350 349 348 347 348 349 349 349 350 349 349 348 347 347 347 349 351 351 351 351 351 352 351 350 350 352 351 352 353 353 353 353 352 350 351 351 351 350 349 349 347 347 350 348 355 361 349 344 346 341 341 341 339 340 341 342 341 340
342 341 340 342 343 345 347 347 348 348 350 350 349 349 348 349 349 348 347 348 349 349 349 350 350 351 351 351 350 349 348 348 349 349 348 348 348 348 348 348 347 346 349 352 351 352 352 352 352 351 350 351 351 351 352 353 353 353 353 352 351 352 352 351 352 350 350 349 348 349 349 353 355 348 349 353 346 342 339 338 338 338 340 341 340
342 340 340 342 343 344 345 346 348 348 349 350 349 349 349 349 349 348 347 348 349 349 349 350 351 351 351 351 350 350 349 348 348 348 347 346 346 347 347 347 347 347 349 352 352 352 352 352 353 352 351 351 351 351 353 353 353 353 354 353 351 353 353 352 352 351 350 349 347 348 347 347 349 348 352 353 352 352 344 338 340 338 339 339 339
341 340 341 343 343 344 345 346 347 347 348 349 349 349 349 349 348 348 347 348 349 349 350 351 351 351 351 351 350 350 349 348 347 347 347 346 347 347 345 345 346 346 348 351 352 352 352 353 353 353 352 351 351 351 353 353 353 354 354 354 352 353 354 353 353 352 350 349 347 346 345 346 346 347 349 346 352 362 355 345 343 341 341 340 339
342 339 341 343 343 344 345 346 346 347 347 348 348 349 349 349 348 348 348 348 349 350 351 351 351 352 351 350 350 349 348 347 347 346 346 347 347 347 345 342 343 346 347 349 352 352 352 352 353 353 352 352 352 352 354 354 352 353 353 353 353 354 354 353 353 353 352 351 349 347 346 346 345 345 347 344 348 359 360 354 349 345 346 344 341
341 339 339 342 343 344 344 345 346 346 347 347 347 348 348 349 348 349 349 348 349 350 351 351 352 352 351 351 351 350 349 347 347 347 346 346 346 346 346 343 342 344 345 347 350 352 351 352 353 353 352 352 352 352 353 353 353 353 353 352 353 354 354 354 354 353 354 352 351 350 347 346 347 346 346 346 346 348 352 353 349 349 350 348 345
341 339 338 341 343 344 345 345 346 346 347 347 347 348 348 349 349 349 349 349 350 351 351 351 352 352 351 351 351 350 349 348 347 346 346 345 345 345 347 345 342 342 344 345 347 348 348 350 352 353 352 352 352 351 352 353 353 353 353 352 354 355 354 354 354 354 354 354 352 351 349 347 347 348 347 348 346 346 350 351 349 350 350 348 348
342 341 339 341 342 343 344 345 346 346 346 347 347 347 348 349 349 349 349 350 350 350 351 351 352 352 351 351 351 351 349 346 346 346 345 344 344 345 346 346 343 343 345 345 345 344 345 349 352 353 353 352 352 352 352 353 353 353 353 353 354 354 353 354 354 353 354 354 353 352 351 349 348 348 349 349 347 346 349 350 350 352 351 349 349
341 341 340 342 343 343 344 345 346 347 347 347 347 347 348 348 349 349 349 350 350 350 350 351 352 351 351 351 352 351 349 346 345 345 344 344 345 345 346 347 346 345 348 348 346 343 344 349 353 353 353 352 352 354 354 353 353 353 354 353 353 353 353 353 353 353 353 354 355 353 353 352 350 349 349 350 349 347 348 350 351 352 352 350 350
342 339 338 341 343 342 344 345 346 347 347 347 348 348 348 349 349 349 349 349 349 350 350 350 352 351 350 351 351 352 351 348 346 346 346 347 347 346 347 348 347 346 347 348 346 344 346 350 352 352 353 352 351 353 355 354 353 354 354 354 352 352 353 354 354 354 354 353 354 355 354 353 351 351 350 350 351 349 349 351 351 351 351 349 350
344 339 338 340 341 342 344 346 346 347 348 348 348 348 348 349 349 349 349 350 350 350 350 350 351 350 350 350 351 352 352 350 349 349 348 348 348 348 348 348 349 348 348 346 345 345 347 349 350 352 353 352 350 351 353 354 354 354 355 354 353 352 353 354 355 355 354 353 352 354 354 354 353 353 352 352 352 351 351 351 352 355 356 353 351
345 339 338 339 340 343 344 346 347 348 348 348 348 349 349 349 349 349 350 350 350 350 350 350 349 350 350 351 351 352 352 351 351 350 350 349 349 349 349 349 350 349 350 347 344 346 349 349 350 352 353 353 352 351 352 354 355 354 354 354 354 353 354 355 355 354 354 352 351 352 352 354 355 355 354 353 352 352 352 352 352 354 359 360 359
348 341 339 338 340 343 344 345 347 348 348 349 349 349 350 349 349 350 350 350 350 350 350 349 348 349 351 351 351 352 352 351 351 351 351 350 350 350 350 350 350 350 351 350 346 347 351 353 352 352 353 353 353 353 352 353 354 355 354 354 354 354 355 355 354 353 353 353 352 352 351 352 354 355 355 354 353 352 352 353 353 352 355 360 365
350 344 340 339 339 342 344 345 347 348 348 349 349 349 350 350 350 350 350 350 350 350 350 348 348 349 351 351 351 351 352 352 351 351 351 351 351 351 351 351 351 350 351 351 348 348 352 354 353 352 353 353 353 353 354 354 354 355 354 354 354 354 355 355 354 353 353 353 353 352 350 351 354 355 356 355 355 354 354 354 355 353 353 355 358
354 348 344 342 339 341 344 345 346 348 349 349 350 350 350 351 351 350 350 350 350 350 350 349 348 349 350 351 351 352 352 352 352 351 351 351 351 351 351 351 351 351 352 352 350 350 352 353 353 353 353 353 353 354 355 355 355 355 355 354 354 354 354 354 354 353 352 353 353 352 350 349 353 355 355 355 355 355 356 355 355 354 353 354 353
356 353 350 346 339 339 343 345 346 347 348 349 350 350 351 351 351 351 350 350 350 350 351 350 349 349 350 351 351 352 353 352 352 352 352 352 352 353 352 352 352 351 351 352 351 351 352 351 352 353 354 354 354 354 355 355 356 356 356 356 354 354 355 354 354 353 353 353 353 353 351 349 354 356 355 356 356 356 355 355 354 354 353 354 353
354 355 355 350 342 339 341 343 345 346 348 349 350 350 351 352 352 352 352 351 351 352 352 351 350 350 350 351 351 352 353 352 352 353 354 354 354 353 353 352 352 352 351 352 352 352 352 351 352 353 355 355 354 354 354 355 356 357 357 357 356 355 355 355 355 355 354 354 354 354 353 352 354 356 356 356 356 356 356 355 354 354 353 353 354
355 356 356 352 346 343 342 343 344 345 346 348 350 351 351 352 353 352 352 352 352 352 353 352 352 351 351 352 352 352 353 352 353 353 354 355 355 354 353 352 352 352 352 352 352 352 352 352 353 354 354 355 354 354 355 355 356 357 357 357 357 356 356 356 356 354 353 354 355 355 354 353 354 355 356 356 356 356 356 355 355 355 354 353 353
355 355 352 348 346 345 344 344 344 344 345 347 349 351 352 352 352 353 353 353 353 352 353 353 353 353 352 352 353 353 353 353 353 353 354 355 354 353 351 351 352 352 351 352 352 353 353 354 354 354 354 354 354 354 354 355 355 356 356 356 357 357 357 357 356 354 352 353 355 355 355 354 354 354 355 356 356 355 354 355 355 355 355 354 353
353 356 352 346 346 346 346 345 345 344 345 346 348 350 352 353 353 353 353 353 353 353 353 354 354 353 353 353 353 353 353 353 353 353 353 354 353 351 351 351 352 352 351 352 353 354 355 356 355 355 354 354 354 354 354 354 354 355 356 356 357 357 358 358 357 355 353 353 354 354 355 355 354 354 354 354 355 355 354 355 356 355 355 354 354
351 355 356 353 350 348 347 346 346 346 345 346 348 349 351 352 353 354 354 354 354 354 354 355 354 354 354 354 354 354 354 354 353 353 352 353 353 351 351 352 352 352 352 353 354 354 355 356 356 356 355 355 355 355 355 355 355 355 356 356 357 357 357 357 357 356 356 355 355 355 355 356 356 355 355 356 355 356 357 356 356 355 355 354 354
349 351 355 357 355 349 347 347 346 347 346 346 347 349 350 352 352 353 354 355 355 355 356 356 355 355 355 354 354 355 354 354 353 353 352 352 353 351 352 352 352 352 353 353 354 354 355 355 355 356 355 355 355 354 354 355 356 356 356 356 357 357 357 357 357 356 356 356 356 356 356 356 356 356 356 357 356 357 357 356 356 355 354 354 354
348 349 350 354 354 350 347 347 347 347 346 347 347 348 349 351 352 353 353 354 354 355 356 356 356 356 355 355 355 355 355 354 353 352 352 352 352 352 352 353 352 353 353 353 354 354 354 355 355 355 355 354 354 353 353 354 355 356 356 356 357 357 356 356 357 357 356 356 356 356 356 356 357 357 356 356 356 356 356 356 356 355 354 354 353
346 346 347 349 350 349 347 346 347 347 347 347 347 347 348 350 351 352 353 354 354 355 356 356 356 356 356 356 356 355 355 355 353 353 352 352 352 352 353 353 353 353 353 353 354 354 354 355 355 355 355 355 354 353 353 353 354 355 354 355 356 356 356 355 356 356 355 355 356 356 356 357 357 357 356 356 356 356 357 356 355 355 355 354 353
347 346 346 348 348 348 347 346 347 348 348 347 347 347 348 349 351 352 352 354 354 354 354 355 356 355 356 356 356 356 356 355 354 353 353 353 353 353 353 353 353 353 353 354 354 354 355 354 355 355 355 355 355 353 353 353 353 354 354 354 355 355 355 355 355 355 355 355 356 356 356 357 357 357 356 357 357 356 356 356 356 356 355 354 354
347 346 346 346 346 346 346 346 348 349 349 348 347 347 348 349 350 351 352 353 354 354 353 354 354 354 355 356 356 356 356 355 354 354 353 354 353 353 354 353 353 353 353 354 354 354 355 355 355 355 355 355 355 354 354 353 353 354 354 355 355 355 355 355 355 355 354 355 356 357 357 356 356 356 356 357 357 356 356 357 357 356 355 355 355
345 346 346 345 345 345 344 345 346 348 350 350 349 348 348 348 350 351 352 353 353 353 352 352 353 352 354 355 354 354 356 355 355 355 354 354 353 353 354 353 353 354 353 354 354 354 355 355 355 355 355 355 355 354 354 354 353 354 355 355 356 355 356 356 355 355 354 354 355 356 357 357 356 356 356 356 357 355 355 356 356 355 354 354 354
343 344 345 344 344 344 343 344 344 345 347 349 349 349 349 349 350 350 352 352 351 352 352 352 352 352 354 354 351 352 355 355 355 355 354 354 354 354 354 353 352 352 352 353 354 354 354 354 355 355 354 354 354 353 353 354 354 353 354 355 356 356 356 356 356 355 355 354 354 355 357 358 357 356 356 356 356 355 354 354 352 351 351 351 350
340 341 342 342 342 341 341 341 341 342 343 345 347 349 349 350 350 350 351 351 350 350 351 351 351 351 353 352 350 350 353 354 355 355 354 354 354 354 354 353 353 352 351 351 352 352 352 352 353 353 353 353 353 353 353 353 354 353 354 355 356 356 356 355 355 356 356 355 355 356 356 357 357 356 355 355 354 353 353 352 350 349 350 349 350
337 337 338 338 339 338 338 338 339 339 340 342 344 346 348 349 350 350 350 350 350 349 349 349 349 349 350 351 351 351 350 349 351 352 353 353 353 353 353 352 351 351 351 350 350 351 351 351 351 351 352 353 353 353 353 353 353 354 354 355 355 355 355 355 355 356 356 356 356 356 356 357 357 356 355 354 353 352 352 351 350 350 351 352 352
334 334 335 335 335 336 336 336 336 337 338 340 341 344 346 347 347 347 347 348 348 348 347 347 347 347 348 349 350 351 348 346 346 347 348 350 352 352 350 349 349 349 349 349 350 350 350 351 351 350 351 352 352 352 353 353 353 354 354 355 355 355 355 355 355 355 356 356 355 355 356 356 356 356 355 354 352 351 353 352 351 352 352 352 351
332 332 332 332 332 333 333 333 333 334 335 336 338 341 343 344 345 345 344 345 345 345 345 346 346 345 346 346 346 346 346 346 346 345 344 347 350 350 349 348 349 349 349 349 349 349 349 350 351 352 352 353 353 353 353 354 354 354 354 354 355 355 355 355 355 355 356 355 354 353 353 354 355 355 355 353 351 350 352 353 352 352 351 350 350
329 330 330 330 330 330 331 331 331 331 332 333 335 338 339 340 341 342 343 343 344 344 344 345 345 345 345 345 345 345 346 347 347 347 347 348 349 349 348 349 349 349 350 350 349 348 347 350 351 352 352 352 351 352 352 352 353 353 353 354 354 354 355 355 355 356 355 354 352 350 350 351 352 353 354 353 349 350 353 353 351 349 348 349 351
326 328 328 328 329 328 328 329 329 329 329 330 332 334 335 335 335 336 338 339 341 342 343 343 344 344 344 345 345 345 346 347 347 348 347 347 348 348 349 350 350 351 350 350 350 348 347 349 351 351 351 351 350 351 351 350 351 351 351 351 352 353 353 354 354 354 353 352 351 350 350 349 349 350 352 352 349 349 351 350 348 348 348 350 352
325 326 326 326 327 327 327 327 327 327 328 328 329 330 331 330 330 331 332 333 335 338 341 342 342 342 343 344 345 345 345 346 346 345 344 344 345 346 347 349 350 351 350 350 350 349 349 349 350 350 350 350 350 350 350 350 350 351 350 349 349 348 349 349 349 349 349 349 349 349 349 350 350 350 351 350 349 348 348 348 347 347 348 350 352
325 325 326 326 327 326 326 326 326 326 327 327 328 328 328 327 328 328 329 329 331 334 338 340 341 341 341 342 343 343 344 344 344 344 343 343 344 345 346 346 348 349 350 349 349 349 350 350 350 350 350 350 350 349 349 349 350 350 350 350 348 347 347 347 347 347 347 347 347 347 347 349 350 350 351 350 349 347 347 348 348 348 349 350 352
325 326 326 326 325 325 324 324 325 326 326 326 326 327 326 326 326 326 327 328 332 335 337 338 339 339 339 340 340 341 342 342 342 343 343 343 344 345 345 345 346 346 347 348 348 348 348 349 348 348 349 348 348 348 348 348 348 348 348 348 348 347 347 347 347 347 346 346 346 346 346 346 348 350 351 349 348 348 348 349 349 350 350 350 351
325 325 325 325 324 324 324 324 324 325 325 325 325 325 325 325 326 326 326 328 332 335 335 335 336 335 335 335 336 337 338 338 339 339 340 341 342 343 343 344 345 345 345 346 346 346 346 346 346 345 346 345 345 345 344 344 344 344 344 345 345 346 346 346 346 346 346 346 346 347 346 345 347 350 350 348 349 349 349 349 350 350 350 350 351
324 324 324 324 323 322 322 322 323 324 324 324 324 324 324 324 325 325 325 326 329 332 332 332 333 333 332 332 332 332 332 333 334 335 336 338 339 340 342 343 344 345 345 346 345 345 344 343 341 340 340 340 339 338 338 339 339 340 340 341 342 342 343 344 345 346 347 347 346 347 347 346 347 350 350 349 350 350 350 350 350 350 351 351 348
323 323 323 323 322 321 321 321 321 321 322 323 323 323 323 323 324 325 325 325 326 327 329 330 330 330 330 329 328 329 329 329 330 331 332 334 335 337 339 341 342 344 344 343 342 341 340 338 336 336 335 335 335 334 334 335 335 336 337 338 338 339 340 340 341 343 345 346 347 347 347 347 347 349 351 350 350 349 349 349 349 350 350 347 343
323 323 322 321 321 320 319 319 319 318 318 320 322 322 321 321 323 324 325 326 326 325 325 325 325 324 324 324 324 324 324 324 325 327 329 331 333 335 337 338 339 340 340 339 337 336 335 333 331 330 330 330 330 331 330 329 329 330 331 331 331 332 333 335 338 339 340 341 343 346 347 348 348 347 348 349 348 348 348 348 348 348 345 342 341
323 323 323 322 321 320 319 319 317 315 314 314 317 319 318 318 320 323 324 325 326 326 324 323 322 321 321 320 321 320 319 319 320 322 325 328 332 335 335 335 337 337 336 336 333 331 331 329 326 324 324 324 325 325 324 323 322 322 322 322 321 321 324 327 331 334 335 336 338 340 341 342 340 339 339 340 339 339 340 340 341 341 340 339 341
321 321 322 322 322 321 320 318 316 315 314 312 313 314 315 316 318 320 322 324 324 325 324 323 322 321 320 319 318 317 316 316 316 318 322 327 332 334 334 333 334 333 333 332 330 328 327 326 324 323 323 323 323 323 324 324 324 323 321 318 317 318 320 323 325 327 330 332 333 334 335 335 332 332 334 335 333 333 334 335 335 337 338 340 340
319 319 319 319 319 319 319 318 316 316 316 315 314 313 313 314 315 316 319 322 323 323 323 322 321 321 321 320 319 317 316 315 315 316 318 324 329 332 332 331 330 330 328 327 326 325 325 324 324 324 325 324 324 324 324 323 322 322 320 318 317 316 319 323 326 325 325 327 327 327 329 330 329 331 335 337 336 336 337 337 337 337 337 335 333
321 321 320 320 319 317 316 315 315 315 315 315 315 315 314 314 315 317 319 321 322 323 323 322 322 322 322 322 321 319 318 317 317 316 317 320 324 326 327 327 327 327 326 325 324 324 324 323 324 325 324 322 321 320 317 315 315 316 316 316 316 316 317 322 327 328 327 328 326 323 324 326 329 332 336 337 336 336 335 335 335 333 331 329 328
322 323 323 322 322 321 317 314 313 313 312 312 313 313 313 313 315 318 320 320 320 322 322 323 324 324 323 322 322 321 319 318 318 318 318 318 318 318 319 320 320 320 320 321 320 320 319 319 319 319 318 317 316 314 313 312 312 313 313 313 315 316 318 321 326 328 327 329 330 329 328 330 332 333 333 332 331 331 330 329 329 328 327 327 327
322 323 323 322 324 324 322 320 317 314 312 310 310 310 311 310 312 317 321 321 320 320 321 322 323 323 323 323 323 322 321 319 318 318 318 318 317 315 315 315 315 315 315 316 316 316 316 315 315 315 315 314 314 313 313 313 312 313 314 315 315 316 319 323 326 327 327 329 332 333 333 332 331 330 329 327 327 327 326 325 325 325 325 325 324
Wind_Speed
12 17 20 22 22 22 22 22 22 21 21 22 22 22 21 20 20 20 20 19 19 18 18 17 17 16 14 14 15 15 15 14 14 13 12 11 10 10 9 9 8 6 5 4 4 5 5 6 6 5 4 4 5 4 3 3 3 4 4 5 7 8 8 8 8 6 3 3 3 4 5 7 8 8 8 9 10 10 9 8 8 9 9 10 9
8 12 17 20 20 21 22 22 23 24 24 25 25 23 22 21 21 21 21 21 21 20 19 19 18 17 16 16 16 15 16 15 15 14 13 12 11 11 10 9 8 6 5 5 5 6 6 7 7 6 5 6 6 5 4 3 2 3 3 3 5 7 8 8 8 6 2 2 2 3 5 6 7 8 9 10 11 11 11 11 11 11 11 11 11
7 10 14 18 20 22 22 23 25 26 25 26 25 24 23 22 22 22 22 23 23 22 21 20 18 16 15 15 15 15 16 16 15 14 14 12 12 12 11 10 9 8 7 5 6 7 7 7 7 7 6 6 6 5 3 2 2 2 2 2 4 6 7 8 8 7 4 3 3 3 3 4 5 5 8 10 11 12 12 13 14 14 14 13 12
8 9 12 16 19 21 22 23 25 24 23 24 25 25 24 24 23 23 24 25 24 23 22 20 18 15 14 13 13 13 14 15 14 14 14 14 13 13 13 12 11 10 8 6 6 7 7 7 7 7 7 6 6 4 3 3 2 1 2 2 4 6 7 7 7 7 4 1 2 1 1 2 2 3 8 8 6 7 9 11 14 15 14 12 12
10 10 11 14 17 21 23 24 24 24 25 27 28 28 27 27 25 24 25 26 25 25 23 21 18 16 15 14 13 13 13 14 16 16 17 17 16 15 15 14 13 12 10 8 8 7 8 8 7 7 7 7 6 4 4 3 2 1 1 3 4 6 7 7 7 8 6 3 2 1 1 1 1 2 6 5 4 7 9 8 9 12 13 13 12
10 11 12 15 18 21 22 23 25 25 27 29 30 30 29 28 27 26 26 27 26 25 25 23 20 19 18 17 16 15 14 15 17 18 18 18 18 17 17 17 16 14 12 10 10 9 8 8 7 6 6 7 7 5 4 3 2 1 1 2 3 5 6 6 6 7 8 6 4 2 1 1 2 2 2 2 4 6 9 9 5 5 9 12 13
8 10 11 14 18 20 20 23 26 27 28 29 29 29 29 28 28 27 27 27 27 26 25 24 23 21 20 20 18 18 18 18 17 17 17 17 16 16 17 18 18 17 14 12 11 10 9 8 7 6 6 6 6 5 4 3 2 2 0 2 2 3 4 6 6 6 6 7 5 4 3 2 1 2 1 1 2 4 7 11 10 7 3 4 8
8 9 10 13 18 21 22 25 28 29 28 28 28 29 30 30 29 29 29 28 28 27 26 26 24 23 22 21 20 20 20 19 18 17 17 17 16 15 15 17 19 18 17 14 12 11 10 8 7 7 7 6 6 5 4 4 3 2 1 1 2 2 2 4 6 6 6 6 5 5 5 4 4 2 1 1 1 1 4 7 9 9 8 6 5
10 10 11 14 19 23 26 28 29 28 28 29 30 30 31 31 30 30 30 30 29 28 27 26 25 23 23 22 21 21 20 19 19 18 18 18 17 15 14 16 19 19 19 17 14 13 11 9 8 8 8 7 6 6 5 5 4 4 3 1 2 1 1 2 4 5 5 5 5 4 4 4 5 5 4 4 3 1 1 2 5 7 8 9 8
9 10 12 17 23 26 28 28 28 28 29 31 30 29 29 30 31 31 31 31 30 29 27 26 25 24 24 23 22 22 22 22 21 20 20 19 18 17 15 16 18 19 19 19 17 15 13 11 9 8 8 7 7 7 6 6 5 5 4 3 2 2 1 2 2 3 4 4 4 4 3 3 4 5 5 5 4 2 1 2 4 5 6 8 8
8 8 12 18 24 27 27 26 27 28 28 28 28 27 28 30 31 32 32 32 31 30 28 27 25 25 25 24 22 22 22 23 23 21 21 20 20 19 17 16 17 18 19 19 19 18 15 14 11 9 8 8 8 8 8 7 6 6 5 4 3 3 2 2 2 1 2 3 3 3 3 2 3 3 4 4 3 1 1 1 3 4 3 4 6
9 8 9 13 16 19 22 23 25 25 25 26 27 28 28 30 31 32 32 32 32 31 30 28 27 26 25 23 22 21 21 22 23 23 22 21 20 19 18 17 17 18 18 18 18 18 17 15 13 11 10 10 9 9 8 8 7 6 6 5 5 4 4 3 3 2 1 1 2 2 2 2 1 1 2 3 2 1 0 1 2 3 2 3 5
9 8 8 9 10 14 19 21 22 23 25 27 28 28 29 30 31 32 32 33 33 32 32 30 29 27 26 24 22 21 21 21 23 23 22 21 20 20 20 18 18 18 18 18 18 18 18 17 15 13 12 11 11 10 9 8 7 6 6 6 5 5 5 4 4 3 3 2 1 2 3 2 1 1 2 2 3 2 1 1 2 2 2 3 5
8 8 9 9 11 16 20 21 23 24 26 28 28 29 29 29 31 32 32 33 33 33 32 32 30 29 28 25 23 21 22 22 22 22 21 20 20 20 20 19 18 18 19 19 18 17 18 17 15 14 12 11 11 11 10 9 8 7 7 7 6 7 6 5 5 4 4 3 3 3 2 2 2 3 3 3 3 3 3 2 2 2 3 3 4
8 9 10 10 14 19 21 22 24 26 27 27 28 28 29 29 31 32 32 32 33 33 32 32 31 31 29 27 24 22 23 23 22 22 22 21 20 20 20 19 18 17 17 18 18 18 18 17 15 15 13 11 11 12 11 10 9 8 8 8 8 8 7 6 6 6 5 5 5 5 4 3 2 3 3 3 4 3 3 3 2 1 1 2 3
7 9 10 12 16 20 21 22 24 25 26 27 28 29 29 29 31 32 32 33 33 33 33 32 32 32 31 29 26 23 23 24 23 23 23 22 21 21 21 20 18 17 16 17 18 19 18 17 16 16 14 12 12 12 13 12 11 10 9 9 8 8 8 7 7 7 7 6 6 6 6 4 3 3 2 3 3 3 2 2 2 2 0 1 2
7 9 10 11 15 19 21 23 25 25 26 27 29 30 31 31 31 32 31 31 33 33 32 32 32 32 32 30 27 24 24 25 25 24 24 23 22 22 22 21 20 18 18 17 18 19 18 16 17 17 15 13 12 12 13 12 12 11 10 10 9 8 8 8 7 7 8 7 7 7 7 6 5 3 2 3 2 2 1 1 3 3 2 1 0
8 8 9 10 15 19 21 23 26 28 29 30 31 32 32 32 32 32 31 31 32 33 32 31 32 33 33 31 27 26 26 26 25 24 24 24 23 23 23 22 21 20 19 18 18 19 19 17 17 17 16 15 13 13 12 12 12 12 11 11 10 10 10 10 9 9 9 8 8 7 7 7 6 5 4 3 3 2 2 2 3 4 4 3 2
8 7 7 8 13 18 20 22 26 28 29 31 32 31 31 31 31 32 33 33 33 33 32 32 32 33 33 32 28 27 27 26 24 23 23 24 24 23 23 23 22 20 19 19 19 19 19 18 18 17 17 16 15 14 14 14 13 13 13 12 12 12 12 11 10 10 9 9 8 8 7 7 6 6 5 4 3 4 4 5 5 5 5 5 5
5 7 7 7 12 18 21 23 25 27 28 29 29 30 30 31 30 30 31 32 32 32 32 32 32 32 32 31 29 28 28 26 24 23 23 24 24 23 23 24 23 22 21 20 20 19 19 20 19 18 18 17 17 17 16 16 16 15 14 14 13 13 13 12 10 10 9 9 8 8 7 7 7 6 6 5 5 5 6 7 7 7 6 6 6
3 0 3 6 8 12 16 20 22 24 26 27 28 30 30 30 30 31 31 31 31 31 32 32 32 32 31 31 30 30 29 27 25 24 24 24 23 23 23 23 23 24 23 22 22 21 20 20 19 19 19 19 19 18 17 17 17 17 16 15 14 13 14 14 12 11 11 10 9 8 8 7 7 7 7 6 6 6 6 7 7 8 7 6 6
5 5 4 3 6 8 7 7 9 13 16 20 25 28 29 30 32 32 31 31 32 32 32 32 31 31 31 31 31 31 30 28 27 26 26 25 24 23 23 22 23 24 23 23 23 22 21 20 20 20 20 20 20 19 18 18 18 18 17 16 15 14 15 14 13 13 12 11 10 9 9 8 8 9 8 7 7 6 6 7 7 7 7 6 5
7 6 5 6 9 12 12 11 8 7 7 10 15 19 23 27 30 31 32 32 33 33 32 32 31 31 31 31 30 30 30 29 28 27 27 27 25 24 23 22 22 22 22 23 22 22 21 20 20 21 20 20 20 20 19 18 18 18 17 17 16 16 15 15 14 14 13 12 11 10 10 9 9 10 10 9 8 8 7 7 7 6 7 6 6
8 8 7 6 9 10 9 9 9 10 9 8 11 13 14 17 19 22 26 28 30 31 31 31 30 30 30 30 29 29 29 29 29 29 28 27 26 24 22 21 21 21 21 21 21 21 20 20 20 20 20 20 20 20 20 19 19 18 18 17 17 17 17 16 15 14 13 13 13 12 10 9 9 10 10 10 10 9 7 7 6 6 7 7 7
7 8 8 8 7 7 7 8 8 10 11 12 14 14 15 16 17 16 17 18 20 23 24 27 29 30 29 29 29 28 28 29 29 29 29 28 26 24 22 20 20 21 21 21 21 21 20 20 21 21 20 20 20 20 20 20 19 19 18 18 18 17 17 16 16 15 14 13 13 13 11 10 9 10 10 10 9 8 8 7 6 6 7 7 8
5 6 6 7 7 6 7 8 8 8 10 12 14 14 15 19 22 23 22 20 21 22 22 22 24 25 26 28 29 29 28 29 29 28 29 28 26 24 23 21 21 20 20 20 20 20 21 21 21 21 21 22 21 21 21 20 20 20 19 19 18 18 17 17 17 16 15 14 14 14 13 12 11 11 10 10 9 9 9 8 8 9 9 8 7
4 4 4 4 5 6 7 8 8 10 12 15 16 17 17 19 22 25 26 24 24 24 23 23 23 23 24 26 28 28 28 28 28 28 28 28 26 25 24 23 21 20 20 20 20 21 21 21 22 22 22 22 22 22 22 21 21 20 20 20 19 19 18 18 18 17 16 15 15 15 14 13 13 12 12 11 11 10 10 10 10 10 10 10 9
5 5 4 3 2 4 7 9 12 15 17 18 19 21 24 24 24 24 24 23 23 23 21 21 21 22 25 28 28 28 28 28 27 27 27 28 27 26 25 23 22 21 21 21 20 21 22 22 22 22 23 23 23 24 23 22 22 21 21 21 20 20 19 19 18 18 17 16 16 16 15 14 13 13 13 12 12 12 12 12 12 11 11 11 11
7 6 5 5 5 4 3 2 8 12 14 16 19 22 25 26 27 26 26 26 26 27 27 25 22 23 27 29 29 29 28 27 26 26 26 27 26 25 24 24 23 23 22 22 21 21 22 24 24 24 24 24 24 24 24 23 23 22 21 21 21 21 20 19 19 18 18 17 16 16 15 15 14 14 14 14 14 14 14 14 13 11 10 10 10
8 7 7 7 6 6 6 5 4 6 9 12 16 20 23 26 27 27 29 31 32 33 33 31 30 31 31 30 29 29 29 28 27 26 25 25 24 24 24 24 24 24 23 23 22 23 24 25 26 26 26 26 26 25 24 23 23 22 22 21 21 21 21 20 20 19 19 18 18 17 16 15 15 16 16 16 15 15 15 14 13 12 11 11 12
9 8 8 8 8 8 9 9 8 5 6 10 14 17 20 22 24 26 30 33 34 36 35 34 35 35 31 27 26 28 28 27 27 27 26 24 23 22 21 22 23 23 24 23 23 24 25 26 27 27 27 28 27 27 25 24 23 23 22 22 22 22 22 22 21 21 21 20 19 18 17 17 17 17 17 17 16 15 14 14 14 14 14 14 13
9 9 8 8 8 9 9 10 11 9 5 6 11 15 18 20 22 25 28 28 29 31 32 31 31 30 28 24 23 25 27 27 27 26 26 25 24 23 20 19 18 19 21 23 24 24 25 26 27 28 29 29 29 28 26 24 23 23 23 23 22 22 23 23 23 23 23 22 21 20 19 19 18 18 17 17 16 16 15 14 13 12 12 12 11
10 10 9 9 9 9 11 11 11 11 9 5 6 11 16 20 21 24 26 26 25 24 23 23 23 24 25 23 19 19 20 22 25 25 24 23 24 24 23 22 20 18 16 19 23 25 25 26 27 28 29 30 30 29 28 26 24 23 22 23 23 23 23 23 23 23 23 23 22 21 21 20 19 19 18 17 16 16 15 14 12 11 11 11 11
9 9 9 9 10 12 14 15 14 14 13 10 6 3 10 16 18 20 23 26 26 22 18 17 18 20 22 22 21 20 18 16 16 17 18 19 20 22 24 24 23 22 21 20 22 24 25 25 26 28 29 30 30 30 29 27 25 24 23 23 23 23 23 22 23 23 24 23 23 23 23 22 21 20 18 17 17 16 15 14 14 12 11 10 10
8 8 9 10 12 14 16 17 17 18 18 16 13 7 4 7 8 8 10 16 22 21 17 15 16 17 19 20 20 20 18 13 8 7 9 13 16 18 20 21 21 22 22 20 20 23 25 26 26 27 28 29 30 29 28 27 26 24 23 23 24 23 23 23 23 24 24 24 24 24 24 23 22 20 18 17 16 16 16 16 14 12 11 10 9
8 9 10 12 14 16 17 19 21 22 22 21 17 12 9 7 6 5 3 1 7 13 13 13 12 12 12 13 11 10 10 10 8 6 7 10 12 14 15 17 18 17 17 18 20 23 24 24 22 22 24 25 25 25 25 25 24 24 24 24 24 24 24 24 25 25 25 24 23 22 22 22 22 21 19 17 16 15 16 15 13 11 10 10 9
10 11 12 15 17 18 19 21 23 25 24 22 20 17 16 14 11 8 8 8 10 11 12 12 12 10 7 6 6 6 5 6 7 7 9 10 11 12 14 16 17 16 15 16 17 18 19 19 17 17 18 17 17 18 19 21 22 23 23 24 24 25 25 26 26 26 25 25 23 21 20 21 22 22 20 18 17 16 16 15 13 11 9 9 9
13 14 15 17 18 20 21 22 24 24 23 22 21 21 22 21 19 17 15 15 14 12 12 13 12 11 8 6 4 2 1 2 3 3 7 9 9 10 12 14 15 15 16 16 16 16 18 18 16 15 14 13 14 15 15 15 17 18 19 20 21 22 24 25 26 26 25 25 24 22 22 22 22 21 20 20 19 18 17 15 13 11 10 11 11
14 15 15 16 17 19 22 23 23 22 21 21 22 24 25 24 22 23 23 21 18 15 14 14 13 11 9 6 3 0 2 3 3 3 5 7 9 10 10 10 12 12 13 13 14 17 19 20 18 17 16 17 18 17 16 16 16 15 15 16 17 18 20 21 22 22 22 22 22 21 20 21 22 22 22 22 22 20 19 16 14 13 12 13 13
14 14 15 17 18 20 22 23 22 20 20 21 23 25 26 24 24 25 25 23 19 17 16 15 14 13 11 10 8 6 4 1 2 4 5 7 10 10 9 9 11 12 12 12 13 16 18 19 18 17 17 19 20 19 19 19 18 17 16 16 15 16 17 17 17 17 17 18 18 18 17 18 20 22 23 24 22 21 19 17 15 15 14 14 13
13 13 14 17 19 20 21 22 20 19 20 21 23 25 25 24 24 25 24 21 19 18 18 17 16 15 13 11 9 8 7 5 2 1 3 5 8 8 8 10 12 13 13 13 13 14 14 15 14 14 14 15 16 17 18 19 19 19 18 17 16 16 17 17 17 18 20 20 20 19 18 18 20 22 24 23 22 21 19 17 16 15 14 13 13
12 12 13 16 18 19 20 20 20 20 20 21 22 24 24 24 24 23 20 18 17 17 17 18 17 17 17 16 14 12 10 8 5 3 3 4 6 7 7 9 12 12 12 12 12 12 11 10 9 7 7 7 9 11 13 14 15 16 16 16 16 16 17 19 20 23 26 26 26 23 21 20 21 24 25 24 23 22 20 17 15 14 13 13 13
12 12 12 13 16 17 18 18 19 19 20 20 22 24 24 24 22 19 17 16 15 15 16 17 17 17 18 18 17 15 14 13 11 9 6 4 4 4 5 7 8 9 10 10 11 10 8 6 3 2 4 4 4 3 4 5 6 7 8 10 11 12 13 16 19 23 27 28 28 28 27 26 25 27 28 27 25 23 20 17 16 15 14 13 12
12 11 10 11 13 14 15 16 17 18 19 19 20 22 23 23 21 18 16 15 14 14 15 16 16 15 16 16 16 16 15 14 14 13 12 11 9 6 3 4 5 6 8 7 6 4 4 5 6 6 6 5 5 4 3 2 1 2 2 4 6 7 9 11 13 19 23 24 25 26 29 31 29 30 31 29 26 23 20 18 17 15 14 13 12
10 10 9 9 10 11 12 14 15 16 17 17 18 19 21 21 19 17 16 14 13 13 14 15 15 14 14 13 13 13 13 12 11 11 12 13 13 10 6 3 1 1 3 4 6 7 8 8 9 9 9 8 8 7 7 7 6 6 5 5 5 6 7 8 9 12 16 19 21 22 26 29 31 31 31 28 24 21 19 18 16 15 14 13 13
8 7 6 6 8 9 10 12 14 15 15 15 15 16 17 17 17 16 16 14 13 12 12 13 12 12 11 10 10 10 10 9 9 8 9 10 11 10 9 8 7 6 5 8 11 12 11 11 11 11 11 11 10 10 10 9 9 8 8 8 8 8 8 7 6 7 9 11 13 14 15 18 20 20 20 20 18 17 16 15 15 14 14 14 16
5 5 4 5 6 8 9 11 12 13 13 14 13 13 13 13 13 14 14 13 13 13 12 11 10 10 10 10 11 11 10 10 9 8 9 10 10 10 10 10 11 11 10 10 11 12 12 12 12 11 10 10 10 9 8 8 8 8 9 9 9 8 8 7 6 5 5 4 5 7 8 10 11 10 10 12 14 14 14 14 15 15 16 17 19
4 5 5 6 7 8 8 9 9 10 10 11 12 12 12 11 11 11 11 11 12 12 11 10 10 10 11 13 13 12 12 12 12 11 11 13 13 13 12 12 12 11 10 9 10 11 11 11 10 9 7 7 7 7 8 9 9 10 10 9 9 8 8 9 8 6 4 2 1 1 3 7 8 7 6 9 14 15 15 16 18 18 19 21 22
3 4 5 6 8 8 9 9 9 8 9 9 10 11 11 11 11 10 9 9 10 10 10 10 10 10 10 11 12 12 13 13 13 13 14 15 15 15 14 14 13 12 11 11 11 11 10 8 7 7 6 6 7 8 9 10 11 11 11 11 10 9 8 8 8 6 3 2 0 3 6 8 7 7 8 12 15 17 18 19 20 21 22 23 23
1 1 2 4 6 7 8 9 10 10 10 10 10 10 10 10 10 10 9 9 8 8 9 10 10 10 9 9 10 11 11 12 13 13 13 14 15 14 14 14 14 13 12 11 10 10 9 9 8 7 6 7 7 8 8 9 10 11 11 11 10 9 8 8 7 6 4 1 3 5 6 7 8 11 14 17 18 20 22 22 22 23 24 24 22
3 2 2 3 4 5 7 8 9 10 10 11 10 10 10 10 9 8 9 10 9 8 7 8 9 9 9 8 8 8 8 9 10 11 11 11 12 13 12 13 13 13 12 12 11 11 10 9 9 8 7 7 7 8 8 8 9 9 10 10 9 7 7 7 6 4 4 6 7 8 7 9 12 14 16 18 21 23 25 26 25 24 24 23 22
Wind_Direction
201 200 198 194 190 188 187 186 186 189 198 201 200 200 200 197 195 197 196 194 196 198 199 199 198 194 192 192 189 186 184 183 183 181 180 179 181 187 189 190 189 187 195 205 206 209 216 222 221 212 223 262 272 276 287 301 316 324 326 331 342 348 355 4 3 348 312 289 303 298 297 305 312 314 310 309 310 311 309 304 299 292 287 289 291
184 192 196 191 185 182 182 181 181 186 194 198 200 200 201 199 198 197 195 192 193 195 196 198 198 196 193 193 191 188 187 186 185 184 182 180 185 190 194 196 191 194 216 226 230 232 227 223 217 218 242 262 264 269 278 283 302 316 327 338 352 358 2 10 13 16 39 56 20 335 321 317 304 297 301 303 303 302 299 297 297 295 295 297 296
174 184 190 188 182 178 178 181 185 189 192 195 198 200 201 200 200 199 194 191 191 193 195 195 196 196 195 194 193 193 193 192 190 189 188 187 188 192 199 201 198 209 226 234 240 236 227 221 216 226 250 256 251 257 260 258 281 314 353 1 5 7 11 21 24 31 56 74 45 11 347 343 323 311 312 309 302 298 296 295 293 292 295 298 297
181 183 185 185 181 176 178 182 185 187 189 191 195 198 201 202 203 200 194 192 192 193 195 194 194 196 198 200 200 202 202 200 201 200 199 199 198 199 205 207 209 217 225 229 231 224 218 220 225 239 250 243 236 244 241 239 260 293 20 26 22 20 25 36 40 43 52 74 54 53 73 18 337 326 332 329 329 325 312 298 289 286 288 291 292
185 184 184 182 179 180 182 183 182 184 189 192 194 197 200 202 203 201 196 194 194 195 195 195 196 199 204 208 210 211 211 210 210 211 210 210 211 210 210 212 217 220 222 222 217 209 212 222 235 246 245 234 233 243 239 239 248 233 50 37 40 36 33 41 53 56 59 71 90 107 39 13 258 303 331 334 8 12 355 327 293 278 277 278 281
189 185 183 181 182 183 184 182 181 185 192 194 195 196 198 201 202 201 199 198 197 197 197 197 199 203 207 210 210 209 211 214 216 215 215 215 216 217 215 217 219 220 220 219 214 210 217 228 239 246 242 238 242 247 239 239 253 236 73 38 49 50 40 44 57 61 62 65 71 63 7 300 260 291 325 318 343 10 18 18 1 298 276 273 276
193 188 183 181 182 181 183 184 184 188 194 195 195 196 198 200 201 200 200 200 199 199 199 200 202 206 210 213 214 213 213 218 220 217 216 215 216 218 218 218 220 220 220 221 221 219 223 231 241 247 243 242 244 240 232 230 243 246 176 38 36 49 42 45 53 59 66 65 66 67 51 39 302 287 251 304 328 357 23 35 43 40 10 299 287
188 188 184 183 183 183 185 188 190 192 193 191 193 196 198 199 199 199 199 200 200 200 201 203 205 209 212 213 216 217 218 221 222 221 220 220 220 221 218 216 217 219 221 224 227 228 230 231 240 246 241 241 240 231 228 224 230 254 244 356 3 16 31 39 50 58 66 68 73 84 81 70 64 59 40 46 104 302 360 30 45 50 51 37 8
186 185 185 185 186 188 190 190 192 193 191 191 193 196 197 198 198 198 199 200 200 200 202 206 209 212 212 212 215 218 222 224 224 225 225 224 225 224 221 216 215 219 222 226 229 232 234 232 236 244 242 242 238 231 232 231 237 262 259 267 323 332 358 19 40 51 57 66 72 84 101 96 76 68 57 54 74 68 328 348 16 35 45 35 23
191 187 187 188 188 191 193 192 192 192 192 193 193 194 195 197 198 198 199 199 199 201 204 209 213 214 212 213 216 218 221 223 223 225 225 226 227 226 224 220 218 221 223 225 229 233 235 235 237 240 242 244 241 235 234 235 245 258 254 254 280 286 293 347 14 34 41 52 63 73 94 105 88 74 62 55 53 47 357 308 347 12 25 22 22
191 189 191 191 192 193 192 191 191 192 193 191 190 192 194 196 197 198 199 199 200 201 205 211 214 214 213 216 219 219 219 218 218 221 222 223 226 227 228 227 224 224 225 226 229 234 237 237 238 240 243 245 243 239 234 236 243 248 248 251 261 264 268 308 333 359 23 32 50 67 73 75 86 84 67 60 53 35 7 300 334 357 351 360 15
187 185 191 191 191 191 189 191 191 189 189 188 189 192 194 196 196 197 199 199 201 202 205 210 213 214 216 218 219 220 220 218 216 218 220 222 225 227 229 230 229 226 225 226 229 233 235 232 235 241 244 244 241 239 236 235 240 244 246 252 259 259 263 284 296 295 303 340 28 43 37 22 57 93 61 44 29 18 355 283 312 346 326 332 360
188 183 185 187 186 185 187 189 188 186 188 188 189 191 194 196 197 197 199 200 201 203 205 208 212 215 217 219 220 221 221 220 218 219 221 223 225 227 228 230 231 227 225 227 228 230 229 228 233 241 244 245 241 239 238 234 237 244 244 248 254 254 260 274 278 282 276 268 316 5 13 358 331 316 325 346 354 345 330 310 320 333 309 322 353
188 185 185 187 184 183 186 187 184 187 190 189 189 192 193 196 197 198 200 200 201 203 205 208 211 214 217 220 223 224 222 221 221 222 223 223 224 226 229 231 232 231 228 229 229 227 226 228 235 242 246 248 242 240 241 237 237 246 249 249 252 253 257 263 268 278 281 277 289 300 328 340 315 308 310 314 325 328 326 317 325 326 300 312 341
188 187 188 189 186 184 185 186 186 189 190 189 190 192 193 196 198 200 201 201 201 203 205 208 211 213 216 220 226 229 226 224 226 228 227 227 227 228 229 231 233 233 233 233 230 226 227 230 238 243 245 246 242 240 243 242 242 249 253 253 256 257 256 257 262 272 276 283 287 279 283 299 295 296 303 304 298 295 310 304 309 343 309 318 327
187 190 191 189 187 185 185 186 188 190 190 190 191 193 195 197 199 201 203 202 203 204 206 209 211 212 213 217 224 230 230 229 230 231 231 231 232 232 233 233 233 234 238 238 231 225 227 234 241 243 242 243 240 239 241 242 244 252 255 255 256 256 253 254 259 266 272 279 283 277 275 276 278 283 302 316 296 270 294 302 308 331 329 333 328
185 192 192 189 185 185 187 188 189 191 192 193 194 196 198 200 201 202 203 204 203 205 207 210 210 211 213 216 222 227 229 230 232 232 232 233 234 236 237 236 235 236 240 241 234 227 228 238 244 243 241 242 240 238 239 239 242 250 253 254 255 253 250 251 256 263 270 275 279 279 274 268 267 267 273 309 307 270 286 314 314 316 289 266 332
181 192 192 184 183 187 188 190 192 192 194 196 197 200 201 202 203 203 202 204 205 206 208 210 210 210 212 216 221 226 228 229 233 235 235 234 236 237 237 236 236 238 239 239 235 229 230 239 244 242 241 243 242 239 240 241 244 249 251 253 254 252 251 252 258 265 268 271 277 280 273 262 261 261 256 272 291 288 298 312 322 322 302 273 250
176 181 186 181 181 187 188 192 196 196 197 198 199 201 202 204 206 205 205 207 208 207 207 209 210 210 212 217 221 225 226 228 232 235 235 236 237 237 237 237 238 239 238 237 236 233 234 240 243 242 243 245 243 242 245 248 248 250 252 253 254 253 251 252 256 261 264 267 272 278 273 260 255 257 250 248 272 285 291 296 302 311 316 294 265
185 169 169 175 179 186 189 193 197 198 200 201 200 201 203 205 206 207 208 209 209 208 208 209 211 211 213 217 221 223 224 227 231 233 234 236 237 238 239 240 241 241 240 238 237 237 239 242 244 244 244 246 245 245 250 253 251 251 252 254 256 254 250 249 250 252 255 258 263 271 272 260 254 256 251 245 260 281 287 288 288 290 299 298 275
338 269 153 157 164 179 190 197 200 201 202 201 201 203 204 205 207 208 208 208 208 209 209 210 211 211 213 216 220 222 223 226 229 231 232 234 236 239 242 244 244 243 241 240 239 239 242 244 246 246 247 248 248 249 252 254 253 252 252 253 255 252 249 250 253 254 251 248 252 260 262 256 253 259 263 260 266 284 291 290 289 282 280 284 273
27 14 21 65 91 99 123 161 188 202 208 208 206 205 205 206 207 209 209 209 209 210 210 211 211 211 213 217 220 222 224 226 228 229 230 231 235 240 244 245 245 244 243 242 240 240 243 245 247 249 250 250 250 252 253 253 252 252 253 253 253 251 248 251 256 257 254 248 251 259 259 252 248 251 257 259 265 280 290 295 298 281 269 271 269
86 74 48 46 69 83 96 108 129 163 194 213 215 214 213 213 211 210 210 210 210 211 211 211 211 212 214 216 219 222 224 225 227 228 229 231 235 240 244 244 244 244 243 242 241 242 244 248 249 250 250 251 252 253 254 254 253 252 251 251 252 252 252 253 255 255 252 250 254 262 266 262 255 252 250 249 257 268 276 290 295 273 258 268 275
103 105 101 85 82 95 118 130 138 154 168 186 206 219 224 224 224 220 217 215 213 212 212 211 211 213 215 216 217 220 223 225 226 227 228 231 234 237 240 242 241 242 242 243 243 244 247 249 249 249 248 249 251 251 252 253 252 251 249 250 253 255 255 257 258 256 254 253 255 260 264 266 262 256 252 252 256 263 267 276 279 260 255 270 281
102 110 117 119 110 113 145 160 156 165 180 187 198 211 217 220 226 231 231 226 219 215 214 213 213 213 213 215 217 220 222 224 225 226 226 229 234 236 236 237 238 240 242 244 244 245 249 251 251 250 249 249 251 250 250 251 250 249 249 250 254 256 257 259 259 259 259 258 257 258 262 264 262 258 255 255 258 262 266 269 268 263 267 277 284
76 95 109 122 132 135 152 165 165 173 189 198 201 207 215 218 220 224 227 227 223 220 218 216 217 216 215 216 217 219 222 224 224 225 226 228 231 234 234 235 237 239 242 245 246 247 250 253 255 254 252 252 253 252 252 251 250 249 249 251 254 256 258 259 260 261 261 262 261 261 263 265 264 262 258 256 260 264 268 271 271 272 275 278 284
53 73 92 117 137 139 145 167 191 199 204 209 207 211 222 225 222 222 224 222 218 217 216 215 217 218 218 219 219 219 220 223 224 225 225 227 229 231 234 236 237 240 243 246 248 250 252 255 257 257 256 256 256 255 254 253 252 251 251 252 253 255 259 260 261 261 261 264 265 265 266 266 264 264 259 256 260 264 268 271 272 274 276 277 281
32 38 44 52 76 116 142 181 216 223 217 212 206 208 219 225 225 223 221 218 214 213 215 217 217 219 221 220 220 220 220 222 224 225 225 227 229 231 233 236 238 242 246 249 250 253 255 257 258 258 257 257 257 257 257 256 255 254 253 253 252 254 259 261 260 260 260 264 268 269 267 265 264 262 258 257 261 266 271 274 274 276 277 276 278
27 22 21 26 23 32 80 197 241 242 233 221 209 207 213 220 224 222 218 217 216 214 215 214 216 224 229 226 221 219 220 221 222 223 225 227 230 232 234 235 238 243 248 251 254 257 259 258 258 257 256 256 256 257 258 257 256 255 252 252 252 254 257 259 259 258 258 261 266 266 263 263 264 263 262 264 266 268 272 273 273 274 273 273 276
23 17 20 30 28 20 16 2 309 264 244 227 219 217 217 220 222 220 218 219 218 217 214 210 214 224 229 228 224 220 218 219 220 222 224 227 230 234 236 238 240 243 248 252 257 259 259 258 257 255 256 256 255 256 257 255 254 252 251 251 252 254 256 256 257 257 257 259 261 262 261 262 266 266 267 269 271 271 270 268 267 266 266 269 271
24 23 28 32 32 27 19 10 356 317 256 226 221 222 224 228 227 222 220 218 215 215 214 211 214 219 220 219 222 223 219 217 217 219 221 224 227 230 234 238 241 243 245 249 254 258 258 257 256 256 256 256 257 258 257 255 252 250 251 252 253 254 255 256 257 258 258 258 258 260 261 264 267 267 267 270 273 272 269 267 267 266 265 267 266
23 22 28 34 33 30 24 17 11 357 325 247 227 221 222 227 229 227 226 222 216 216 215 211 210 212 210 210 219 224 219 215 216 217 217 219 223 224 226 229 235 241 244 245 247 251 256 257 257 258 258 258 260 261 260 257 255 252 251 252 253 255 257 257 258 259 259 259 258 258 260 264 266 266 267 269 270 267 264 264 265 264 264 264 264
28 25 30 35 33 28 22 17 12 7 2 335 256 231 223 222 224 227 227 223 221 223 222 215 207 204 204 203 207 216 218 216 216 215 214 217 221 224 226 228 229 234 245 252 251 249 252 255 256 257 259 259 260 261 261 259 258 256 255 253 253 256 257 258 259 259 260 260 259 258 259 263 266 267 268 269 266 261 256 252 252 258 264 264 262
29 28 30 28 24 24 22 19 17 14 14 16 2 281 225 217 219 222 223 221 219 220 221 215 205 201 200 198 199 207 214 219 216 210 209 214 220 227 231 232 231 231 238 252 258 255 251 253 257 258 258 257 258 259 260 260 260 260 258 255 255 256 257 257 258 258 260 262 261 259 259 260 263 266 268 269 265 256 246 241 246 255 260 258 256
25 27 25 18 18 20 19 20 21 22 25 29 29 38 133 174 190 207 226 226 215 204 198 195 194 195 198 196 197 200 204 210 216 213 212 217 224 230 231 231 233 233 233 238 251 258 255 253 255 257 256 255 256 257 258 259 260 259 258 257 256 256 256 257 258 258 260 262 263 261 261 262 265 268 269 267 261 250 240 240 243 244 245 249 255
25 25 23 19 19 22 23 23 26 27 28 30 35 49 74 85 83 81 54 95 167 158 149 148 155 169 187 193 190 191 198 202 205 214 223 223 223 223 221 222 226 227 226 230 241 253 255 251 249 250 251 251 253 254 254 255 256 256 256 256 255 255 255 256 258 259 260 262 264 263 263 263 263 265 267 262 252 242 237 236 234 233 240 249 254
33 31 30 30 31 33 33 33 33 31 29 32 40 52 60 58 56 65 78 86 98 110 117 117 116 121 134 148 153 164 180 179 178 201 224 232 229 221 219 222 221 218 221 229 233 238 245 247 243 241 244 247 251 253 253 254 254 254 254 255 255 254 254 255 257 258 259 261 261 262 262 259 256 258 260 253 242 235 231 228 227 228 235 241 244
37 36 34 35 37 38 39 40 40 36 32 36 44 52 55 52 47 49 59 69 77 90 107 112 111 113 113 109 113 129 139 109 113 182 226 237 240 232 227 231 231 227 228 233 237 240 246 251 249 246 248 252 253 253 254 256 255 254 255 256 256 256 255 256 258 258 259 261 262 264 266 262 257 257 253 242 234 230 227 227 228 227 227 231 235
39 42 41 40 42 42 42 43 41 37 37 41 47 52 52 45 41 43 45 45 48 63 85 99 102 103 102 101 101 26 305 309 315 298 263 253 254 251 246 247 250 248 243 240 242 247 252 256 257 258 261 261 262 263 265 265 262 259 258 259 260 259 260 260 261 262 263 263 264 265 264 260 258 257 248 236 230 228 226 227 229 227 227 230 230
39 45 51 52 49 46 44 42 39 38 43 47 49 51 49 43 41 43 39 33 37 55 75 87 91 91 91 89 88 94 106 139 270 272 263 255 254 254 253 253 254 254 252 246 240 244 253 259 263 264 265 265 267 271 271 268 265 262 260 260 260 259 259 260 263 266 267 266 264 261 256 254 256 252 242 232 227 227 227 227 227 227 228 228 222
46 46 53 58 56 52 49 46 44 46 49 50 52 51 47 45 44 42 36 33 41 59 74 82 85 89 93 89 81 82 92 100 107 274 275 266 265 268 264 257 256 257 258 257 253 254 262 267 269 270 268 265 265 265 265 265 265 264 263 263 262 260 261 263 267 269 269 268 266 261 254 252 251 243 235 229 227 229 228 227 227 227 226 222 214
61 55 54 58 58 56 54 50 48 50 50 51 54 52 48 47 46 41 38 41 48 58 66 72 75 77 79 80 77 75 74 73 67 36 340 306 296 297 289 273 264 261 264 270 269 267 268 269 270 269 257 244 243 246 250 256 262 265 266 267 266 265 265 266 267 268 269 267 265 261 257 254 248 239 234 233 233 232 229 226 225 222 215 209 205
67 61 57 60 61 58 55 51 49 48 47 49 53 52 49 47 43 40 45 50 52 57 61 63 66 68 70 73 74 73 71 67 63 57 44 21 348 321 302 288 273 260 259 268 270 264 256 247 235 196 174 175 178 196 224 246 264 274 278 280 280 277 273 269 264 263 264 266 266 263 259 254 245 236 235 235 232 229 224 219 217 211 203 199 196
73 71 67 66 64 61 57 53 48 44 43 45 48 50 48 44 39 43 53 56 57 64 69 70 70 70 70 72 72 71 68 63 59 57 54 47 39 25 340 296 279 254 243 244 240 224 202 171 142 129 126 121 114 109 102 86 51 13 341 323 316 307 296 285 270 260 258 260 263 262 258 255 248 237 232 228 222 218 213 208 206 202 194 190 185
78 78 72 66 65 62 58 53 48 43 41 40 42 46 46 41 37 42 50 55 58 66 71 74 75 73 72 70 69 68 65 59 53 49 46 44 40 37 34 21 4 224 205 172 132 126 128 123 114 109 104 98 94 90 82 73 63 52 38 20 5 351 334 318 296 275 263 259 260 258 252 248 242 231 220 211 206 204 203 201 198 193 185 180 177
83 81 73 63 63 61 57 54 49 44 41 38 37 42 43 40 38 41 45 50 57 63 68 71 70 67 65 62 62 64 63 59 56 52 49 48 44 45 51 55 62 76 96 107 107 110 115 110 100 93 93 93 91 86 79 72 61 51 41 27 18 13 2 347 326 306 291 274 260 250 236 226 219 211 202 195 193 194 193 191 187 182 178 176 175
77 70 57 44 47 52 53 52 49 44 41 38 37 38 38 36 36 39 41 46 54 61 66 66 64 64 64 64 65 66 64 62 61 62 63 58 55 61 69 70 70 73 81 94 102 107 110 108 100 90 83 82 83 80 71 60 48 38 30 22 15 12 5 360 354 340 329 309 265 250 234 208 190 177 176 183 184 181 178 175 172 172 173 171 170
72 56 39 29 32 39 41 41 42 41 37 34 33 32 30 28 31 35 38 44 53 61 68 72 74 76 74 72 72 72 71 70 68 67 66 62 59 64 71 72 71 72 74 82 93 96 95 95 94 87 73 59 57 50 36 26 17 11 9 8 7 6 2 360 1 359 357 4 354 267 203 183 169 153 159 174 173 169 166 164 163 163 162 160 159
78 52 35 29 27 27 26 26 26 27 29 29 28 26 23 23 24 28 34 44 52 60 69 74 77 77 74 72 71 71 71 71 70 70 68 65 62 62 66 69 70 73 76 81 84 84 78 69 66 61 45 29 26 23 16 9 3 358 355 354 356 359 358 357 360 2 358 346 26 131 139 146 150 152 158 159 154 150 147 146 148 150 149 148 148
131 28 14 24 24 22 25 25 19 16 18 20 21 22 21 21 22 24 30 39 45 51 62 70 71 69 69 68 68 70 70 71 72 72 72 72 69 66 66 70 71 71 72 74 71 64 53 42 33 23 10 0 359 360 359 357 356 354 350 349 353 351 346 352 4 13 26 87 169 166 160 161 161 156 150 144 139 136 132 131 133 138 140 140 140
214 260 318 350 7 13 20 24 20 17 18 19 22 24 23 23 25 26 29 35 37 37 48 63 69 68 68 64 61 62 65 70 75 78 79 82 82 77 73 74 75 75 71 66 61 53 44 35 27 18 12 4 357 358 2 4 5 4 359 359 1 352 349 3 14 25 71 113 141 152 150 151 151 145 137 134 134 132 129 128 130 131 133 135 134